Location: *
(46.1006°N, 1.8394°E)
Time: 23:42:27
(UTC+00:00)

Cosmos 2333 Rocket - Pass Details

Date: 20 September 2019
Orbit: 840 x 862 km, 70.8° (Epoch: 14 October)

Event Time Altitude Azimuth Distance (km) Brightness Sun altitude
Rises 19:06:55 0° 328° (NNW) 3,424 6.1 -13.1°
Reaches altitude 10° 19:09:27 10° 323° (NW) 2,487 5.5 -13.6°
Maximum altitude 19:14:53 46° 252° (WSW) 1,134 3.3 -14.5°
Drops below altitude 10° 19:20:18 10° 180° (S) 2,484 4.5 -15.4°
Sets 19:22:50 0° 174° (S) 3,419 5.1 -15.8°
